Regional Weather Roundup
Issued by NWS

Home | Current Version | Previous Version | Graphics & Text | Print | Product List | Glossary On
Versions: 1 2 3 4 5 6 7 8 9 10 11 12 13 14 15 16 17 18 19 20 21 22 23 24 25 26 27 28 29 30 31 32 33 34 35 36 37 38 39 40 41 42 43 44 45 46 47 48 49 50
000
ASUS43 KLMK 060502
RWRKY
KENTUCKY REGIONAL WEATHER ROUNDUP
NATIONAL WEATHER SERVICE LOUISVILLE KY
100 AM EDT WED MAY 06 2015

NOTE "FAIR" INDICATES FEW OR NO CLOUDS BELOW 12,000 FEET
WITH NO SIGNIFICANT WEATHER AND/OR OBSTRUCTIONS TO VISIBILITY.

KYZ001>023-026-027-061>063-070>075-060600-
WESTERN AND SOUTH CENTRAL KENTUCKY

CITY           SKY/WX    TMP DP  RH WIND       PRES   REMARKS
PADUCAH        CLEAR     63  56  78 CALM      30.17R
HENDERSON      CLEAR     57  54  88 CALM      30.18R
OWENSBORO      CLEAR     65  57  75 CALM      30.19S
HOPKINSVILLE   NOT AVBL
BOWLING GREEN  CLEAR     62  56  80 CALM      30.21S
GLASGOW        NOT AVBL
$$

KYZ024-025-028>034-038-045-046-053-060600-
NORTH CENTRAL KENTUCKY

CITY           SKY/WX    TMP DP  RH WIND       PRES   REMARKS
LOUISVILLE/SDF CLEAR     69  55  60 SE3       30.20S
LOUISVILLE/LOU CLEAR     65  55  70 CALM      30.21S
FORT KNOX      CLEAR     61  55  79 CALM      30.19F
$$

KYZ035>037-039>044-047>052-055>060-089>105-060600-
NORTHEAST KENTUCKY

CITY           SKY/WX    TMP DP  RH WIND       PRES   REMARKS
LEXINGTON      CLEAR     63  55  75 CALM      30.23S
COVINGTON      CLEAR     62  56  80 S3        30.21S
FRANKFORT      CLEAR     60  54  80 CALM      30.21S
$$

KYZ054-064>069-076>088-106>120-060600-
SOUTHEAST KENTUCKY

CITY           SKY/WX    TMP DP  RH WIND       PRES   REMARKS
JACKSON        CLEAR     71  49  45 CALM      30.25S
LONDON         CLEAR     62  53  72 CALM      30.25R
SOMERSET       NOT AVBL
MIDDLESBORO    NOT AVBL
MONTICELLO     PTCLDY    61  58  90 CALM      30.27R
$$




USA.gov is the U.S. government's official web portal to all federal, state and local government web resources and services.